OBJECT T, 43775

Orbit data source: Space-Track

You're viewing an Uncataloged Satellite

Recently launched and/or uncataloged satellites may have evolving metadata. Metadata may include but not limited to: Owner, Maufacturer, Bus, Motor, and Mission.

OBJECT T, 43775 is a satellite in SSO that was launched on Mon, 03 Dec 2018 UTC via an FALCON 9 launch vehicle from the Air Force Western Test Range (AFWTR). Unknown objects in Earth's orbit typically refer to objects detected orbiting the Earth but have not yet been identified or cataloged. These objects could be anything from previously untracked satellites, spent rocket stages, debris from satellite collisions, or even natural meteoroids temporarily captured by Earth's gravity.

Loading next visibility...
Identifier
43775, 2018-099T
Orbit
SSO
Country
Flag of TBDTBD
Related business
None
Manufacturer
Unknown
Mission
Non-operational Commercial Technology
Bus & Motor
Unknown
Mass
Unknown
Launch date (UTC)
2018-12-03 (7 years ago)
Launch vehicle
FALCON 9
Launch site
Air Force Western Test Range (AFWTR)
Object type
Unknown
Shape & HBR
Box, 0.1 m
Radar Cross Section
0.015 m², Small (<0.1 m²)

Expand to show TLE details & history
Last TLE update: 15 hours ago

TLE from 15 hours ago
0 OBJECT T
1 43775U 18099T   26034.39580332  .00004401  00000-0  28114-3 0  9999
2 43775  97.4415  82.7536 0007272  72.5491 287.6533 15.09130116392134
Epoch: 2026-02-03T09:29Z
TLE epoch observation values (Epoch: 2026-02-03T09:29:57.406Z)
Latitude
-0.00001°
Longitude
166.68706°
Altitude
540.409 km
Speed
7.593 km/s
True Right ascension
05h 31m 00s
True Declination
0° 00' 00"
Sunlit
Object was in full shadow at epoch
Visualization orbit readout
Latitude
Unknown
Longitude
Unknown
Altitude
Unknown
Speed
Unknown
Apparent Right ascension
Unknown
Apparent Declination
Unknown
Sunlit
N/A
Visualization observer readout
Local Sidereal Time
02:02:59
Azimuth
Unknown
Elevation
Unknown
Doppler factor
Unknown
Orbital elements
Apogee altitude
540.866 km
Perigee altitude
530.811 km
Semi-major axis
6,913.976 km
Eccentricity
0.00073
Inclination
97.4415°
RAAN
82.7536°
Arg. of periapsis
72.5491°
True anomaly
287.57387°
Mean anomaly
287.6533°
Eccentric anomaly
287.61359°
Mean motion
3.7753 °/min
Orbital period
95.36 mins
BSTAR
0.00028114
Loading maneuver chart data...
Computing Atmospheric mass density...
Loading historical data...
Loading historical data...
Loading historical data...
Loading historical data...
Loading historical data...
Loading historical data...
Loading historical data...

Documentation

Showing up to 5 results
|